| time (UTC) | temp F | wind direction | speed knots | gust knots | rain 1hr in | rain 24hr in | rain mn in | humidity % | barometer mb |
| 20260503214525 | 89 | 159 | 0.9 | 7.8 | 0.00 | 0.00 | 0.00 | 14 | 1011.1 |
| 20260503214020 | 90 | 83 | 2.6 | 7.8 | 0.00 | 0.00 | 0.00 | 14 | 1011.2 |
| 20260503213516 | 90 | 115 | 3.5 | 9.6 | 0.00 | 0.00 | 0.00 | 14 | 1011.4 |
| 20260503212527 | 91 | 120 | 8.7 | 14.8 | 0.00 | 0.00 | 0.00 | 14 | 1011.8 |
| 20260503212026 | 90 | 116 | 5.2 | 13.9 | 0.00 | 0.00 | 0.00 | 15 | 1011.6 |
| 20260503211522 | 89 | 118 | 7.0 | 13.9 | 0.00 | 0.00 | 0.00 | 16 | 1011.8 |
| 20260503211018 | 89 | 144 | 5.2 | 11.3 | 0.00 | 0.00 | 0.00 | 17 | 1011.9 |
| 20260503210514 | 88 | 75 | 3.5 | 11.3 | 0.00 | 0.00 | 0.00 | 20 | 1012.1 |
| 20260503210041 | 88 | 104 | 4.3 | 9.6 | 0.00 | 0.00 | 0.00 | 20 | 1012.2 |
| 20260503205522 | 88 | 108 | 3.5 | 13.9 | 0.00 | 0.00 | 0.00 | 20 | 1012.4 |
| 20260503205018 | 87 | 145 | 4.3 | 13.9 | 0.00 | 0.00 | 0.00 | 21 | 1012.3 |
| 20260503204518 | 87 | 127 | 4.3 | 11.3 | 0.00 | 0.00 | 0.00 | 21 | 1012.3 |
| 20260503204015 | 87 | 130 | 5.2 | 8.7 | 0.00 | 0.00 | 0.00 | 21 | 1012.4 |
| 20260503203531 | 87 | 140 | 3.5 | 9.6 | 0.00 | 0.00 | 0.00 | 21 | 1012.4 |
| 20260503203026 | 86 | 129 | 4.3 | 9.6 | 0.00 | 0.00 | 0.00 | 22 | 1012.4 |
| 20260503202522 | 86 | 112 | 2.6 | 7.0 | 0.00 | 0.00 | 0.00 | 22 | 1012.5 |
| 20260503202018 | 86 | 154 | 2.6 | 7.8 | 0.00 | 0.00 | 0.00 | 22 | 1012.7 |
| 20260503201514 | 85 | 169 | 0.9 | 7.8 | 0.00 | 0.00 | 0.00 | 23 | 1012.6 |
| 20260503201014 | 84 | 131 | 2.6 | 12.2 | 0.00 | 0.00 | 0.00 | 24 | 1012.8 |
| 20260503200528 | 85 | 98 | 7.0 | 13.0 | 0.00 | 0.00 | 0.00 | 24 | 1012.8 |
| 20260503200036 | 86 | 96 | 7.8 | 13.0 | 0.00 | 0.00 | 0.00 | 21 | 1012.9 |
| 20260503195518 | 86 | 129 | 3.5 | 7.0 | 0.00 | 0.00 | 0.00 | 22 | 1013.0 |
| 20260503195013 | 85 | 220 | 0.9 | 7.8 | 0.00 | 0.00 | 0.00 | 22 | 1013.0 |
| 20260503194530 | 86 | 137 | 1.7 | 10.4 | 0.00 | 0.00 | 0.00 | 22 | 1013.2 |
| 20260503194026 | 85 | 119 | 2.6 | 10.4 | 0.00 | 0.00 | 0.00 | 25 | 1013.2 |
| 20260503193525 | 84 | 159 | 4.3 | 10.4 | 0.00 | 0.00 | 0.00 | 25 | 1013.3 |
| 20260503193021 | 85 | 98 | 3.5 | 10.4 | 0.00 | 0.00 | 0.00 | 26 | 1013.4 |
| 20260503192517 | 85 | 159 | 0.9 | 9.6 | 0.00 | 0.00 | 0.00 | 26 | 1013.5 |
| 20260503192012 | 84 | 137 | 4.3 | 9.6 | 0.00 | 0.00 | 0.00 | 26 | 1013.8 |
| 20260503191528 | 84 | 100 | 3.5 | 9.6 | 0.00 | 0.00 | 0.00 | 27 | 1013.7 |
| 20260503191024 | 84 | 134 | 3.5 | 9.6 | 0.00 | 0.00 | 0.00 | 27 | 1013.8 |
| 20260503190519 | 84 | 126 | 2.6 | 9.6 | 0.00 | 0.00 | 0.00 | 27 | 1013.9 |
| 20260503190030 | 84 | 112 | 3.5 | 12.2 | 0.00 | 0.00 | 0.00 | 28 | 1013.8 |
| 20260503185531 | 83 | 129 | 2.6 | 12.2 | 0.00 | 0.00 | 0.00 | 28 | 1013.8 |
| 20260503185027 | 83 | 124 | 6.1 | 12.2 | 0.00 | 0.00 | 0.00 | 28 | 1013.8 |
| 20260503184523 | 83 | 120 | 7.0 | 12.2 | 0.00 | 0.00 | 0.00 | 28 | 1014.0 |
| 20260503184019 | 82 | 129 | 6.1 | 9.6 | 0.00 | 0.00 | 0.00 | 29 | 1014.3 |
| 20260503183515 | 82 | 125 | 2.6 | 11.3 | 0.00 | 0.00 | 0.00 | 29 | 1014.3 |
| 20260503183032 | 82 | 106 | 7.0 | 11.3 | 0.00 | 0.00 | 0.00 | 29 | 1014.4 |
| 20260503182513 | 82 | 122 | 4.3 | 10.4 | 0.00 | 0.00 | 0.00 | 30 | 1014.4 |
| 20260503182030 | 82 | 82 | 5.2 | 11.3 | 0.00 | 0.00 | 0.00 | 30 | 1014.6 |
| 20260503181526 | 81 | 129 | 7.8 | 11.3 | 0.00 | 0.00 | 0.00 | 30 | 1014.7 |
| 20260503181022 | 81 | 110 | 4.3 | 12.2 | 0.00 | 0.00 | 0.00 | 30 | 1014.7 |
| 20260503180518 | 81 | 102 | 5.2 | 12.2 | 0.00 | 0.00 | 0.00 | 30 | 1014.7 |
| 20260503180027 | 81 | 67 | 6.1 | 10.4 | 0.00 | 0.00 | 0.00 | 31 | 1014.8 |
| 20260503175528 | 80 | 125 | 6.1 | 10.4 | 0.00 | 0.00 | 0.00 | 31 | 1014.8 |
| 20260503175024 | 80 | 114 | 2.6 | 9.6 | 0.00 | 0.00 | 0.00 | 31 | 1014.9 |
| 20260503174525 | 80 | 108 | 5.2 | 10.4 | 0.00 | 0.00 | 0.00 | 31 | 1014.9 |
| 20260503174022 | 80 | 133 | 5.2 | 10.4 | 0.00 | 0.00 | 0.00 | 31 | 1015.1 |
| 20260503173518 | 80 | 118 | 4.3 | 10.4 | 0.00 | 0.00 | 0.00 | 31 | 1015.0 |
| 20260503173014 | 80 | 107 | 4.3 | 9.6 | 0.00 | 0.00 | 0.00 | 31 | 1015.2 |
| 20260503172530 | 80 | 135 | 4.3 | 9.6 | 0.00 | 0.00 | 0.00 | 31 | 1015.3 |
| 20260503172027 | 80 | 113 | 4.3 | 8.7 | 0.00 | 0.00 | 0.00 | 31 | 1015.3 |
| 20260503171524 | 79 | 91 | 5.2 | 12.2 | 0.00 | 0.00 | 0.00 | 32 | 1015.2 |
| 20260503171024 | 79 | 135 | 5.2 | 12.2 | 0.00 | 0.00 | 0.00 | 32 | 1015.3 |
| 20260503170519 | 79 | 95 | 6.1 | 12.2 | 0.00 | 0.00 | 0.00 | 32 | 1015.3 |
| 20260503150513 | 76 | 112 | 0.9 | 9.6 | 0.00 | 0.00 | 0.00 | 35 | 1015.4 |
| 20260503131027 | 74 | 106 | 4.3 | 11.3 | 0.00 | 0.00 | 0.00 | 36 | 1014.5 |
| 20260503130524 | 74 | 119 | 4.3 | 11.3 | 0.00 | 0.00 | 0.00 | 36 | 1014.6 |
| 20260503110518 | 74 | 129 | 3.5 | 9.6 | 0.00 | 0.00 | 0.00 | 36 | 1014.1 |
| 20260503090513 | 76 | 119 | 6.1 | 13.0 | 0.00 | 0.00 | 0.00 | 32 | 1014.4 |
| 20260503081517 | 76 | 144 | 1.7 | 7.8 | 0.00 | 0.00 | 0.00 | 32 | 1014.6 |
| 20260503081013 | 77 | 120 | 1.7 | 8.7 | 0.00 | 0.00 | 0.00 | 32 | 1014.6 |
| 20260503080529 | 77 | 104 | 2.6 | 10.4 | 0.00 | 0.00 | 0.00 | 32 | 1014.7 |
| 20260503072516 | 77 | 117 | 3.5 | 11.3 | 0.00 | 0.00 | 0.00 | 31 | 1014.5 |
| 20260503072012 | 77 | 129 | 4.3 | 12.2 | 0.00 | 0.00 | 0.00 | 31 | 1014.7 |
| 20260503071527 | 78 | 119 | 5.2 | 12.2 | 0.00 | 0.00 | 0.00 | 30 | 1014.7 |
| 20260503071023 | 78 | 125 | 4.3 | 13.9 | 0.00 | 0.00 | 0.00 | 30 | 1014.6 |
| 20260503070523 | 78 | 76 | 6.1 | 13.9 | 0.00 | 0.00 | 0.00 | 30 | 1014.7 |
| 20260503055023 | 79 | 129 | 2.6 | 11.3 | 0.00 | 0.00 | 0.00 | 28 | 1013.8 |
| 20260503054519 | 79 | 114 | 2.6 | 9.6 | 0.00 | 0.00 | 0.00 | 28 | 1013.9 |
| 20260503054015 | 79 | 81 | 2.6 | 9.6 | 0.00 | 0.00 | 0.00 | 28 | 1013.9 |
| 20260503053511 | 79 | 125 | 4.3 | 10.4 | 0.00 | 0.00 | 0.00 | 28 | 1013.8 |
| 20260503053027 | 79 | 117 | 5.2 | 10.4 | 0.00 | 0.00 | 0.00 | 27 | 1013.9 |
| 20260503052523 | 79 | 113 | 4.3 | 10.4 | 0.00 | 0.00 | 0.00 | 27 | 1013.9 |
| 20260503052018 | 79 | 97 | 3.5 | 10.4 | 0.00 | 0.00 | 0.00 | 27 | 1014.0 |
| 20260503051518 | 79 | 120 | 2.6 | 11.3 | 0.00 | 0.00 | 0.00 | 27 | 1014.1 |
| 20260503051013 | 80 | 76 | 5.2 | 12.2 | 0.00 | 0.00 | 0.00 | 27 | 1014.0 |
| 20260503050528 | 79 | 87 | 4.3 | 11.3 | 0.00 | 0.00 | 0.00 | 27 | 1013.8 |
| 20260503050021 | 80 | 53 | 3.5 | 11.3 | 0.00 | 0.00 | 0.00 | 27 | 1013.9 |
| 20260503045517 | 80 | 89 | 5.2 | 12.2 | 0.00 | 0.00 | 0.00 | 26 | 1013.8 |
| 20260503045013 | 80 | 103 | 7.0 | 12.2 | 0.00 | 0.00 | 0.00 | 26 | 1013.7 |
| 20260503044528 | 80 | 102 | 6.1 | 9.6 | 0.00 | 0.00 | 0.00 | 26 | 1013.8 |
| 20260503044024 | 80 | 133 | 4.3 | 12.2 | 0.00 | 0.00 | 0.00 | 26 | 1013.7 |
| 20260503043524 | 80 | 70 | 4.3 | 12.2 | 0.00 | 0.00 | 0.00 | 26 | 1013.7 |
| 20260503043020 | 80 | 94 | 3.5 | 10.4 | 0.00 | 0.00 | 0.00 | 26 | 1013.7 |
| 20260503042515 | 80 | 99 | 5.2 | 10.4 | 0.00 | 0.00 | 0.00 | 25 | 1013.6 |
| 20260503042011 | 80 | 75 | 3.5 | 9.6 | 0.00 | 0.00 | 0.00 | 25 | 1013.4 |
| 20260503041528 | 80 | 88 | 5.2 | 14.8 | 0.00 | 0.00 | 0.00 | 25 | 1013.3 |
| 20260503041024 | 81 | 91 | 7.0 | 14.8 | 0.00 | 0.00 | 0.00 | 25 | 1013.1 |
| 20260503040521 | 81 | 102 | 6.1 | 12.2 | 0.00 | 0.00 | 0.00 | 25 | 1013.1 |
| 20260503040020 | 81 | 78 | 1.7 | 13.9 | 0.00 | 0.00 | 0.00 | 24 | 1013.0 |
| 20260503035516 | 81 | 134 | 5.2 | 13.9 | 0.00 | 0.00 | 0.00 | 25 | 1013.0 |
| 20260503035011 | 81 | 86 | 3.5 | 11.3 | 0.00 | 0.00 | 0.00 | 24 | 1012.8 |
| 20260503034527 | 81 | 77 | 4.3 | 11.3 | 0.00 | 0.00 | 0.00 | 24 | 1012.8 |
| 20260503034023 | 82 | 74 | 5.2 | 11.3 | 0.00 | 0.00 | 0.00 | 24 | 1012.8 |
| 20260503033519 | 81 | 84 | 3.5 | 13.0 | 0.00 | 0.00 | 0.00 | 24 | 1012.8 |
| 20260503033014 | 82 | 92 | 6.1 | 13.0 | 0.00 | 0.00 | 0.00 | 24 | 1012.9 |
| 20260503032514 | 82 | 82 | 2.6 | 10.4 | 0.00 | 0.00 | 0.00 | 23 | 1012.8 |
| 20260503032030 | 82 | 75 | 3.5 | 7.8 | 0.00 | 0.00 | 0.00 | 23 | 1012.8 |
| 20260503031525 | 82 | 84 | 1.7 | 7.8 | 0.00 | 0.00 | 0.00 | 23 | 1012.6 |
| 20260503031021 | 82 | 97 | 2.6 | 9.6 | 0.00 | 0.00 | 0.00 | 23 | 1012.6 |
| 20260503030517 | 82 | 65 | 3.5 | 9.6 | 0.00 | 0.00 | 0.00 | 23 | 1012.5 |
| 20260503030032 | 82 | 73 | 1.7 | 7.0 | 0.00 | 0.00 | 0.00 | 22 | 1012.5 |
| 20260503025526 | 83 | 109 | 1.7 | 7.0 | 0.00 | 0.00 | 0.00 | 22 | 1012.4 |
| 20260503025026 | 83 | 69 | 0.9 | 6.1 | 0.00 | 0.00 | 0.00 | 22 | 1012.4 |
| 20260503024522 | 83 | 75 | 0.9 | 11.3 | 0.00 | 0.00 | 0.00 | 22 | 1012.3 |
| 20260503024017 | 83 | 93 | 4.3 | 11.3 | 0.00 | 0.00 | 0.00 | 21 | 1012.1 |
| 20260503023533 | 84 | 113 | 4.3 | 9.6 | 0.00 | 0.00 | 0.00 | 21 | 1012.2 |
| 20260503023029 | 83 | 123 | 4.3 | 7.0 | 0.00 | 0.00 | 0.00 | 22 | 1012.1 |
| 20260503022525 | 83 | 100 | 2.6 | 7.0 | 0.00 | 0.00 | 0.00 | 21 | 1012.1 |
| 20260503022021 | 84 | 88 | 2.6 | 8.7 | 0.00 | 0.00 | 0.00 | 21 | 1012.1 |
| 20260503021519 | 84 | 116 | 4.3 | 8.7 | 0.00 | 0.00 | 0.00 | 21 | 1012.1 |
| 20260503021015 | 84 | 88 | 1.7 | 6.1 | 0.00 | 0.00 | 0.00 | 21 | 1012.0 |
| 20260503020532 | 84 | 94 | 1.7 | 7.8 | 0.00 | 0.00 | 0.00 | 20 | 1012.0 |
| 20260503020026 | 84 | 98 | 2.6 | 7.8 | 0.00 | 0.00 | 0.00 | 20 | 1012.1 |
| 20260503015522 | 85 | 109 | 1.7 | 6.1 | 0.00 | 0.00 | 0.00 | 20 | 1012.1 |
| 20260503015019 | 85 | 93 | 2.6 | 7.8 | 0.00 | 0.00 | 0.00 | 20 | 1012.2 |
| 20260503014515 | 85 | 93 | 2.6 | 7.8 | 0.00 | 0.00 | 0.00 | 20 | 1012.2 |
| 20260503014015 | 85 | 88 | 1.7 | 6.1 | 0.00 | 0.00 | 0.00 | 20 | 1012.3 |
| 20260503013530 | 85 | 81 | 2.6 | 7.8 | 0.00 | 0.00 | 0.00 | 20 | 1012.2 |
| 20260503013026 | 85 | 110 | 3.5 | 7.8 | 0.00 | 0.00 | 0.00 | 20 | 1012.2 |
| 20260503012522 | 85 | 79 | 2.6 | 7.0 | 0.00 | 0.00 | 0.00 | 19 | 1012.2 |
| 20260503012018 | 85 | 96 | 2.6 | 7.0 | 0.00 | 0.00 | 0.00 | 18 | 1012.2 |
| 20260503011534 | 85 | 65 | 0.9 | 2.6 | 0.00 | 0.00 | 0.00 | 18 | 1012.3 |
| 20260503011029 | 85 | 114 | 0.0 | 2.6 | 0.00 | 0.00 | 0.00 | 18 | 1012.3 |
| 20260503010525 | 86 | 115 | 0.0 | 2.6 | 0.00 | 0.00 | 0.00 | 18 | 1012.3 |
| 20260503010024 | 86 | 33 | 0.0 | 2.6 | 0.00 | 0.00 | 0.00 | 18 | 1012.3 |
| 20260503005520 | 86 | 100 | 0.0 | 0.9 | 0.00 | 0.00 | 0.00 | 18 | 1012.4 |
| 20260503005015 | 86 | 100 | 0.0 | 3.5 | 0.00 | 0.00 | 0.00 | 18 | 1012.3 |
| 20260503004531 | 86 | 100 | 0.9 | 5.2 | 0.00 | 0.00 | 0.00 | 18 | 1012.4 |
| 20260503004027 | 86 | 145 | 1.7 | 3.5 | 0.00 | 0.00 | 0.00 | 18 | 1012.3 |
| 20260503003522 | 86 | 102 | 0.9 | 4.3 | 0.00 | 0.00 | 0.00 | 18 | 1012.1 |
| 20260503003019 | 86 | 95 | 0.9 | 5.2 | 0.00 | 0.00 | 0.00 | 18 | 1012.1 |
| 20260503002520 | 86 | 124 | 3.5 | 7.0 | 0.00 | 0.00 | 0.00 | 18 | 1012.2 |
| 20260503002016 | 86 | 78 | 3.5 | 7.8 | 0.00 | 0.00 | 0.00 | 18 | 1012.1 |
| 20260503001533 | 86 | 63 | 2.6 | 7.8 | 0.00 | 0.00 | 0.00 | 18 | 1012.2 |
| 20260503001030 | 87 | 102 | 1.7 | 4.3 | 0.00 | 0.00 | 0.00 | 17 | 1012.2 |
| 20260503000525 | 86 | 333 | 0.9 | 6.1 | 0.00 | 0.00 | 0.00 | 18 | 1012.3 |
| 20260503000020 | 87 | 69 | 0.0 | 6.1 | 0.00 | 0.00 | 0.00 | 18 | 1012.2 |
| 20260502235517 | 86 | 173 | 0.0 | 8.7 | 0.00 | 0.00 | 0.00 | 17 | 1012.2 |
| 20260502235018 | 87 | 127 | 3.5 | 8.7 | 0.00 | 0.00 | 0.00 | 17 | 1012.3 |
| 20260502234515 | 87 | 82 | 0.0 | 4.3 | 0.00 | 0.00 | 0.00 | 17 | 1012.2 |